This demonstration page uses our WeatherBlox Daily Observations layout. Learn more.

41.55636, -103.73856

Hourly Observations for June 1, 2020

Temp ( °F °C ) Dew Point ( °F °C ) Humidity (%) Winds ( mph kmh ) Pressure ( in mb ) Visibility ( mi km ) Precip ( " mm )
12:58 am 00:58 Mostly Cloudy 70 21.2 52 10.9 52 52 S 21 33 29.91 1013 10 16.0934 0 0
1:58 am 01:58 Mostly Cloudy with Light Showers 70 21.1 51 10.8 52 52 SSE 16 26 29.92 1013 10 16.0934 0 0
2:58 am 02:58 Mostly Cloudy 69 20.7 50 10.2 51 51 SSE 26 43 29.89 1012 10 16.0934 0 0
3:58 am 03:58 Mostly Cloudy 68 19.9 51 10.6 55 55 SSE 17 28 29.89 1012 10 16.0934 0.05 1.27
4:58 am 04:58 Mostly Cloudy 69 20.4 48 8.7 47 47 SSE 14 22 29.84 1011 10 16.0934 0 0
5:58 am 05:58 Clear 64 17.8 49 9.6 59 59 SSW 14 22 29.85 1011 10 16.0934 0 0
6:58 am 06:58 Clear 62 16.7 50 10 65 65 SW 13 20 29.86 1011 10 16.0934 0 0
7:58 am 07:58 Clear 61 16 51 10.3 69 69 W 6 9 29.87 1012 10 16.0934 0 0
8:58 am 08:58 Clear 64 17.5 50 9.8 61 61 SW 14 22 29.85 1011 10 16.0934 0 0
9:58 am 09:58 Clear 64 17.5 50 9.8 61 61 SW 7 11 29.85 1011 10 16.0934 0 0
10:58 am 10:58 Clear 62 16.4 49 9.7 65 65 SW 13 20 29.9 1013 10 16.0934 0 0
11:58 am 11:58 Sunny 58 14.5 50 9.8 74 74 SW 8 13 29.93 1014 10 16.0934 0 0
12:58 pm 12:58 Sunny 66 18.8 52 11.3 62 62 SW 7 11 29.92 1013 10 16.0934 0 0
1:58 pm 13:58 Sunny 71 21.8 53 11.5 52 52 W 6 9 29.92 1013 10 16.0934 0 0
2:58 pm 14:58 Sunny 76 24.6 48 8.9 37 37 W 6 9 29.92 1013 10 16.0934 0 0
3:58 pm 15:58 Sunny 79 26.1 47 8.3 32 32 WNW 7 11 29.92 1013 10 16.0934 0 0
4:58 pm 16:58 Sunny 84 28.8 45 7.2 26 26 NNW 9 15 29.9 1012 10 16.0934 0 0
5:58 pm 17:58 Sunny 87 30.5 42 5.8 21 21 NW 6 9 29.89 1012 10 16.0934 0 0
6:58 pm 18:58 Sunny 88 31.1 39 3.9 18 18 Calm 29.88 1012 10 16.0934 0 0
7:58 pm 19:58 Sunny 89 31.8 40 4.5 18 18 N 8 13 29.86 1011 10 16.0934 0 0
8:58 pm 20:58 Sunny 91 32.5 39 3.8 16 16 NNW 6 9 29.83 1010 10 16.0934 0 0
9:58 pm 21:58 Sunny 92 33.1 41 4.8 17 17 NNE 7 11 29.83 1010 10 16.0934 0 0
10:58 pm 22:58 Sunny 89 31.5 43 6.2 20 20 Calm 29.82 1010 10 16.0934 0 0
11:58 pm 23:58 Sunny 91 32.6 36 2.4 15 15 Calm 29.81 1010 10 16.0934 0 0

Powered by AerisWeather